sat.trackr.live / text

‹ back to catalog

STARLINK-34516

NORAD 64605 · 2025-137M

PAYLOAD ACTIVE UNKNOWN

§ Identity

Operator
Country
US
Launch date
2025-06-25
Launch site
AFETR
Launch vehicle
Mass (kg)
RCS (m²)

Purposes: comms

External: N2YO · Heavens-Above · Gunter

§ Orbital elements

Epoch: 2026-09-19T22:51:00.550080Z

Period
94.01 min
Inclination
53.1582°
Eccentricity
0.0001588
Mean motion
15.31712547 rev/d
Perigee alt
469.6 km
Apogee alt
471.8 km
Semi-major
6,848.8 km
B*
6.3125e-4
RAAN
151.0418°
Arg perigee
61.2200°
Mean anomaly
298.8961°
Rev number
7,060

§ Raw data

STARLINK-345161 64605U 25137M   26262.95208970  .00019282  00000+0  63125-3 0  99982 64605  53.1582 151.0418 0001588  61.2200 298.8961 15.31712547 70602

JSON: /api/v1/satellites/64605 · /tle

For live sub-satellite position, see the globe view (requires WebGL).

§ Visibility from observer

Set your observer location to see the next 7 days of passes ≥ 10°. The values pass through the URL so the page stays shareable.

No JS? Fill the form by hand. The geolocation button needs JavaScript.